Find Globalstar M032

NORAD ID: 25852 Int'l Des: 1999-037 Owner: GLOBT Country: US Constellation: globalstar operational
MEOCIRCULAR

現在のビュー

3D地球を読み込み中...

About Globalstar M032

Globalstar M032 (NORAD 25852) is a globalstar constellation satellite launched Jul 10, 1999 by GLOBT of US. It operates in MEO, CIRCULAR orbit with a mass of 450.00 kg.

Globalstar M032について

説明を読み込み中...

次回通過

Passes for default location (London). Set your location on the main map for personalized predictions.

高度履歴

Loading altitude history...

軌道要素

1 25852U 99037B 26159.19540409 -.00000036 00000-0 10031-2 0 9992
2 25852 51.9916 141.6634 0012631 45.9459 314.2379 11.19068338174640
Epoch: Jun 8, 2026 • Age: 26 hours

現在のステータス

高度 2062.2 km
速度 6.88 km/s
衛星直下点 51.30°N, 145.81°W
打ち上げ日 Jul 10, 1999
運用期間 26.9 years
タイプ communications

技術仕様

分類 Payload
質量 450.00 kg
乾燥質量 380.00 kg
総質量 450.00 kg
長さ 1.50 m
直径 0.60 m
スパン 12.00 m
形状 Box + 2 Pan
製造者 LOR
バスタイプ LS-400
フェーズステータス In Orbit
所有者/国 GLOBT/US

Most Searched